User: anonymous   Login
Location: La Tine
(46.4708°N, 7.0525°E)
Time: 04:22:52
(UTC+00:00)
Language:

Cosmos 1833 Rocket - Orbit

View from above orbital plane
View from above orbital plane
View from above satellite
View from above satellite

Ground track
Ground track

The orbit data is extracted from the following two-line orbital elements,

1 17590U 87027B   20337.37145988 -.00000230  00000-0 -90846-4 0  9994
2 17590  71.0035   7.7827 0005468 202.2843 157.8044 14.16791442742949
Epoch (UTC): 02 December 2020 08:54:54
Eccentricity: 0.0005468
inclination: 71.0035°
perigee height: 832 km
apogee height: 840 km
right ascension of ascending node: 7.7827°
argument of perigee: 202.2843°
revolutions per day: 14.16791442
mean anomaly at epoch: 157.8044°
orbit number at epoch: 74294

The dashed part of the orbit path shows where the satellite is in the earth's shadow,  

DLR